Weather in Padang

Indonesia     0°56′12″N   100°21′50″E
temp.,
°C
wind,
m/s
gust,
m/s
humid.,
%
clouds,
%
prec.,
mm/h
press.,
hPa
HPBL,
m
9 may, sun
sun901:00+27e228331 2.1 1009103
04:00+27ne228299 0.5 1008178
07:00+27ne227899 1.2 1009159
10:00+28wsw1176100 0.0 1010350
13:00+28wsw227710 0.4 1008354
16:00+29sw227084 0.1 1006487
19:00+29s117199 0.3 1008401
22:00+28ese117497 0.1 1009268
10 may, mon
mon1001:00+28ese2278100 1.1 1008291
04:00+27e2279100 0.0 1007217
07:00+27e217855 0.0 1008196
10:00+28sw11725 0.0 1009252
13:00+28wsw337466 0.1 1007445
16:00+29sw2273100 0.2 1006569
19:00+29ene1173100 0.2 1008388
22:00+28ene227999 0.1 1009211
11 may, tue
tue1101:00+27e228085 0.6 1008107
04:00+27ne228050 1.9 1006125
07:00+27ne22786 2.3 1008173
10:00+28w217421 0.0 1008275
13:00+28w3375100 0.1 1006437
16:00+29sw1273100 0.4 1005576
19:00+29e117397 1.1 1007449
22:00+28ene117838 5.2 100869
12 may, wed
wed1201:00+27ne3383100 7.1 1007205
04:00+27ne338173 2.0 1006193
07:00+27ne228052 2.5 1008166
10:00+28nnw3378100 0.5 1008298
13:00+28nw4476100 4.4 1006434
16:00+26ne3385100 10.0 1006232
19:00+26ne5589100 17.0 1008326
22:00+26ne3485100 3.1 1009220
13 may, thu
thu1301:00+26nne3380100 3.4 1008280
04:00+26nne2379100 0.2 1007299
07:00+26nne227899 0.3 1007308
10:00+27nw227499 0.0 1007280
13:00+28w447794 0.0 1005426
16:00+28wsw1176100 0.3 1005397
19:00+28ssw0074100 0.4 1006380
22:00+28ene117779 0.0 1008297